www.pogodaiklimat.ru

Погода и климат >> Архив погоды >> Иран >> Ahwaz


ПОГОДА в Ahwaz

  • Прогноз погоды в Ahwaz
  • Монитор погоды в Ahwaz
  • Климат города

АРХИВ ПОГОДЫ в Ahwaz

Время (UTC), дата Ветер
(напр.,м/с)
 
Видим.   Явления Облачность Т
(С)
Тd
(С)
f
(%)
Тe
(С)
Тes
(С)
Комфортность P
(гПа)
Po
(гПа)
Тmin
(С)
Tmax
(С)
R
(мм)
R24
(мм)
S
(см)
03 14.11 В 1 4000 м дымка 6/1 1200 м
[Sc Ci fib]
+14.3 +12.2 87 +15 +15 1013.7 1011.2 +14.3
06 14.11 СЗ 1 2500 м мгла 10/5 1050 м
[Cb calv As trans]
+18.4 +13.9 75 +20 +21 1015.3 1012.7
09 14.11 В 2 4000 м мгла 10/5 1050 м
[Cb calv As trans]
+21.4 +14.8 66 +24 +26 комфорт 1012.6 1010.1
12 14.11 Ю 2 7000 м мгла 10/6 900 м
[Cb calv As op]
+22.3 +12.2 53 +25 +25 комфорт 1012.3 1009.8
15 14.11 В 2 8000 м мгла {дождь} 10/10 450 м
[Cb calv As op]
+19.3 +14.4 73 +21 +21 комфорт 1012.6 1010.0 +22.5
18 14.11 ЮВ 6 6000 м в посл. час дождь 9/4 900 м
[Cb calv As op]
+15.8 +14.7 93 +14 +14 1011.9 1009.3 12
21 14.11 ЮВ 6 10 км 8/5 900 м
[Cb calv Ac As]
+18.2 +14.1 77 +18 +18 1012.0 1009.4
00 15.11 ЮВ 5 10 км 9/8 900 м
[Cb calv Ac As]
+19.0 +14.7 76 +20 +20 1011.6 1009.0
03 15.11 ЮВ 3 10 км 9/8 900 м
[Cb cap Ac As]
+18.3 +15.7 85 +19 +19 1013.2 1010.6 +15.6
06 15.11 ЮВ 5 10 км {дождь} 10/8 900 м
[Cb calv Ac As]
+19.7 +16.4 81 +22 +22 комфорт 1016.2 1013.6 0.4
09 15.11 ЮВ 4 10 км {дождь} 10/6 900 м
[Cb calv Ac As]
+20.5 +16.9 80 +24 +25 комфорт 1015.3 1012.7
12 15.11 В 3 10 км {дождь} 10/6 900 м
[Cb calv Ac As]
+20.0 +17.4 85 +23 +23 комфорт 1014.1 1011.5 0.0
15 15.11 В 2 7000 м слабый дождь 10/6 900 м
[Cb calv Ac As]
+19.2 +17.0 87 +22 +22 комфорт 1015.3 1012.7 +21.3
18 15.11 В 2 8000 м слабый дождь 9/5 900 м
[Cb calv Ac As]
+19.5 +16.5 83 +22 +22 комфорт 1014.2 1011.6 0.5
21 15.11 ЮВ 2 10 км слабый дождь 10/5 600 м
[Cb calv As op]
+19.4 +16.4 83 +22 +22 комфорт 1013.8 1011.2
00 16.11 ЮВ 4 7000 м слабый дождь 10/5 900 м
[Cb calv As op]
+19.0 +17.7 92 +21 +21 комфорт 1012.0 1009.4 1
03 16.11 ЮВ 4 7000 м дымка {дождь} 9/6 900 м
[Cb calv Ac As]
+19.4 +16.6 84 +21 +21 комфорт 1013.9 1011.3 +18.5
06 16.11 ЮВ 2 8000 м мгла {дождь} 5/3 1050 м
[Sc diur, vesp Ac trans]
+23.6 +17.1 67 +27 +30 жарко 1015.7 1013.1 0.0
09 16.11 Ю 5 10 км 6/6 900 м
[Cu Sc Ac As]
+25.3 +18.6 66 +30 +32 душно 1015.7 1013.2
12 16.11 ЮЗ 3 10 км 3/3 1050 м
[Cu med, cong]
+26.2 +17.3 58 +30 +32 душно 1016.1 1013.5
15 16.11 штиль 0 10 км 3/3 1050 м
[Cu hum]
+22.1 +18.7 81 +27 +27 душно 1017.6 1015.1 +27.0
18 16.11 штиль 0 10 км ясно +20.8 +18.2 85 +25 +25 комфорт 1018.8 1016.3
21 16.11 СВ 1 6000 м дымка ясно +19.3 +18.4 95 +23 +23 комфорт 1018.7 1016.1
00 17.11 штиль 0 4000 м дымка ясно +17.7 +17.1 96 +18 +18 1018.5 1015.9
03 17.11 СЗ 2 3000 м дымка ясно +17.7 +16.4 92 +18 +18 1019.4 1016.8 +17.6
06 17.11 СЗ 2 10 км ясно +21.0 +16.4 75 +25 +29 комфорт 1020.4 1017.8
09 17.11 СЗ 3 10 км ясно +24.1 +17.9 68 +28 +35 душно 1019.2 1016.6
12 17.11 З 4 10 км 3/3 1200 м
[Cu hum]
+24.9 +18.3 67 +29 +31 душно 1018.0 1015.4
15 17.11 СЗ 4 8000 м мгла ясно +21.7 +16.9 74 +26 +26 душно 1018.8 1016.2 +25.6
18 17.11 З 3 10 км ясно +19.8 +17.0 84 +23 +23 комфорт 1019.2 1016.6
21 17.11 З 3 10 км ясно +17.9 +15.7 87 +18 +18 1018.9 1016.1
00 18.11 З 2 5000 м дымка ясно +16.5 +15.0 91 +17 +17 1018.3 1015.7
03 18.11 З 2 4000 м дымка ясно +15.2 +14.3 94 +15 +15 1018.0 1015.4 +15.2
06 18.11 З 2 800 м туман местами 9/9 180 м
[Frnb]
+16.5 +15.0 91 +17 +17 1019.6 1017.0
09 18.11 СЗ 3 2500 м дымка 1/0
[Ci fib]
+19.7 +16.8 83 +22 +29 комфорт 1018.3 1015.7
12 18.11 СЗ 4 7000 м мгла 5/0
[Cs]
+23.6 +14.3 56 +26 +28 жарко 1016.7 1014.1
15 18.11 З 4 10 км 3/0
[Ci fib]
+20.3 +14.1 68 +23 +23 комфорт 1016.7 1014.1 +24.2
18 18.11 З 3 10 км ясно +18.2 +13.1 72 +19 +19 1017.4 1014.8
21 18.11 З 2 6000 м мгла ясно +16.2 +12.6 79 +16 +16 1017.6 1015.0
00 19.11 З 2 4000 м дымка ясно +14.3 +12.1 87 +14 +14 1016.8 1014.2
03 19.11 З 1 2500 м дымка 5/0
[Ci fib]
+13.0 +11.4 90 +13 +13 1017.3 1014.6 +13.0
06 19.11 В 2 3000 м дымка 5/0
[Ci fib]
+16.5 +13.0 80 +17 +20 1018.6 1016.0
09 19.11 ЮВ 1 3500 м мгла 8/0
[Cs]
+20.4 +15.0 71 +24 +32 комфорт 1018.0 1015.4
12 19.11 СЗ 2 3000 м мгла 10/5 1050 м
[Cb calv As trans]
+20.4 +15.7 74 +24 +24 комфорт 1017.4 1014.7
15 19.11 СЗ 1 3000 м дымка 10/3 1200 м
[Sc As trans]
+17.3 +15.0 86 +18 +18 1017.4 1014.8 +21.2
18 19.11 З 2 4000 м дымка 8/4 1200 м
[Sc Ac As]
+17.3 +15.1 87 +18 +18 1017.8 1015.2
21 19.11 штиль 0 6000 м дымка 8/8 1350 м
[Sc]
+16.7 +14.2 85 +17 +17 1017.3 1014.7
00 20.11 штиль 0 7000 м дымка 9/9 1200 м
[Sc]
+16.4 +14.2 87 +16 +16 1016.8 1014.2
03 20.11 З 1 3000 м дымка 8/6 1200 м
[Sc Ac As]
+15.6 +12.5 82 +16 +16 1018.3 1015.7 +15.5
06 20.11 З 1 4000 м мгла 6/0 2000 м
[As op Cc]
+18.6 +12.8 69 +20 +24 1019.8 1017.2
09 20.11 С 1 6000 м мгла 1/0
[Ac trans]
+22.0 +13.1 57 +25 +34 комфорт 1018.7 1016.2
12 20.11 З 2 7000 м мгла 1/0
[Ci fib]
+23.5 +11.2 46 +25 +27 комфорт 1017.3 1014.7
15 20.11 СЗ 1 7000 м мгла ясно +18.5 +12.9 70 +20 +20 1017.8 1015.2 +24.0
18 20.11 СЗ 2 6000 м мгла ясно +17.5 +13.2 76 +18 +18 1018.6 1016.0
21 20.11 З 2 4000 м дымка ясно +16.6 +13.1 80 +17 +17 1018.2 1015.6

 

Местоположение метеостанции Ahwaz (Иран): широта 31.33 долгота 48.67 высота над уровнем моря 22 м.

В архиве по умолчанию представлена погода в Ahwaz за последнюю неделю. Архивные данные за месяц целиком и за предыдущие месяцы, начиная с января 2011 года, Вы можете получить, выбрав интересующий диапазон дат из раскрывающегося списка и нажав кнопку "Ввод!".


*Определитесь, кто Вы:
робот инопланетянин человек

Внимание! Время в таблицах - всемирное. Для получения местного времени необходимо прибавить поправку, которая в Ahwaz равна 3.5 ч.

Смотрите также архив погоды в соседних городах и на ближайших метеорологических станциях:

Погода в Masjed-Soleyman (Иран) (92 км)
Погода в Safi-Abad Dezful (Иран) (107 км)
Погода в Omidieh (Иран) (114 км)
Погода в Abadan (Иран) (114 км)
Погода в Basrah (Ирак) (120 км)
Погода в Basrah Airport (Ирак) (124 км)
Погода в Fao (Ирак) (151 км)
Погода в Amarah (Ирак) (153 км)
Погода в Abdaly (Кувейт) (167 км)
Погода в Bubiyan (Кувейт) (176 км)

Пояснения к столбцам:

Ветер - указаны скорость ветра в м/с - средняя за 10 мин, порывы в срок и между сроками (в фигурных скобках) и направление, откуда дует ветер: С - северный, СВ - северо-восточный, В - восточный, ЮВ - юго-восточный, Ю - южный, ЮЗ - юго-западный, З - западный, СЗ - северо-западный.
Видимость - горизонтальная дальность видимости в метрах или километрах. При видимости от 1 до 10 км при отсутствии осадков обычно наблюдается дымка, при ухудшении видимости до 1 км и менее - туман. В сухую погоду видимость может ухудшаться дымом, пылью или мглою.
Явления - указаны атмосферные явления, наблюдавшиеся в срок или в последний час перед сроком; фигурными скобками обозначены явления, наблюдавшиеся между сроками (за 1-3 часа до срока); квадратными скобками обозначены град или гололедные отложения с указанием их диаметра в мм.
Облачность - указаны через наклонную черту общая и нижняя облачность в баллах и высота нижней границы облаков в метрах; квадратными скобками обозначены формы облаков: Ci - перистые, Cs - перисто-слоистые, Cc - перисто-кучевые, Ac - высококучевые, As - высокослоистые, Sc - слоисто-кучевые, Ns - слоисто-дождевые, Cu - кучевые, Cb - кучево-дождевые. Подробнее классификацию облаков см. в Атласе облаков (PDF).
T - Температура воздуха - температура, измеренная на высоте 2 м над землей.
Td - Температура точки росы - температура, при понижении до которой содержащийся в воздухе водяной пар достигнет насыщения.
f - Относительная влажность воздуха - влажноcть воздуха, измеренная на высоте 2 м над землей.
Te - Эффективная температура - температура, которую ощущает одетый по сезону человек в тени. Характеристика душности погоды. При расчете учитывается влияние влажности воздуха и скорости ветра на теплоощущения человека.
Tes - Эффективная температура на солнце - температура, которую ощущает человек, с поправкой на солнечный нагрев. Характеристика знойности погоды. Зависит от высоты солнца над горизонтом, облачности и скорости ветра. Ночью, в пасмурную погоду, а также при ветре 12 м/с и более поправка равна нулю.
P - Атмосферное давление - приведенное к уровню моря атмосферное давление.
Po - Атмосферное давление - измеренное на уровне метеостанции атмосферное давление.
Tmin - Минимальная температура - минимум температуры воздуха на высоте 2 м над землей.
Tmax - Максимальная температура - максимум температуры воздуха на высоте 2 м над землей.
R - Количество осадков - Количество выпавших осадков за период времени, мм. При наведении курсора мыши на число - период времени, за который выпало указанное количество осадков.
R24 - Количество осадков - Количество выпавших осадков за 24 часа, мм.
S - Снежный покров - Высота снежного покрова, см. При наведении курсора мыши на число - состояние снежного покрова и степень покрытия местности в баллах.